{"data":{"norad_id":56720,"intl_designator":"2023-068L","name":"ONEWEB-0684","alt_names":[],"object_type":"PAYLOAD","status":"ACTIVE","operator":null,"country":"UK","launch_date":"2023-05-20","launch_site_code":"AFWTR","launch_vehicle":null,"mission":null,"orbit_class":"UNKNOWN","rcs_meters":null,"size_class":null,"mass_kg":null,"dimensions":null,"purposes":["comms"],"wikipedia_slug":null,"has_3d_model":false,"image_url":null,"decayed_at":null,"tle_current":{"epoch":"2026-05-25T00:25:51.191040Z","epoch_age_seconds":84050,"freshness":"FRESH","line1":"1 56720U 23068L   26145.01795360  .00000109  00000+0  25634-3 0  9990","line2":"2 56720  87.8999 263.7992 0000653  73.4736 286.6466 13.15547043146208","mean_motion":13.15547043,"eccentricity":6.53e-5,"inclination_deg":87.8999,"raan_deg":263.7992,"arg_perigee_deg":73.4736,"mean_anomaly_deg":286.6466,"bstar":0.00025634,"rev_number":14620,"period_min":109.46016774255,"perigee_km":1201.2815877851,"apogee_km":1202.2715244955,"semimajor_km":7579.9135561403,"source":"CELESTRAK","updated_at":"2026-05-25T13:38:22.745386Z"}}}